owner,sensor,date,latitude,longitude,sea_water_turbidity,qcFlag 
NERRS,ioos:station:NOAA.NERRS:marabwq:1,2014-01-01T00:45:00Z,27.9798,-97.0287,9.0,1111122 
NERRS,ioos:station:NOAA.NERRS:marabwq:1,2014-01-01T01:45:00Z,27.9798,-97.0287,9.0,1111122 
NERRS,ioos:station:NOAA.NERRS:marabwq:1,2014-01-01T03:45:00Z,27.9798,-97.0287,10.0,1111122 
NERRS,ioos:station:NOAA.NERRS:marabwq:1,2014-01-01T04:45:00Z,27.9798,-97.0287,8.0,1111122 
NERRS,ioos:station:NOAA.NERRS:marabwq:1,2014-01-01T05:45:00Z,27.9798,-97.0287,8.0,1111122 
NERRS,ioos:station:NOAA.NERRS:marabwq:1,2014-01-01T06:45:00Z,27.9798,-97.0287,7.0,1111122 
NERRS,ioos:station:NOAA.NERRS:marabwq:1,2014-01-01T07:45:00Z,27.9798,-97.0287,8.0,1111122 
NERRS,ioos:station:NOAA.NERRS:marabwq:1,2014-01-01T08:45:00Z,27.9798,-97.0287,8.0,1111122 
NERRS,ioos:station:NOAA.NERRS:marabwq:1,2014-01-01T09:45:00Z,27.9798,-97.0287,8.0,1111122 
NERRS,ioos:station:NOAA.NERRS:marabwq:1,2014-01-01T10:45:00Z,27.9798,-97.0287,7.0,1111122 
NERRS,ioos:station:NOAA.NERRS:marabwq:1,2014-01-01T11:45:00Z,27.9798,-97.0287,9.0,1111122 
NERRS,ioos:station:NOAA.NERRS:marabwq:1,2014-01-01T12:45:00Z,27.9798,-97.0287,6.0,1111122 
NERRS,ioos:station:NOAA.NERRS:marabwq:1,2014-01-01T13:45:00Z,27.9798,-97.0287,7.0,1111122 
NERRS,ioos:station:NOAA.NERRS:marabwq:1,2014-01-01T14:45:00Z,27.9798,-97.0287,7.0,1111122 
NERRS,ioos:station:NOAA.NERRS:marabwq:1,2014-01-01T16:45:00Z,27.9798,-97.0287,6.0,1111122 
NERRS,ioos:station:NOAA.NERRS:marabwq:1,2014-01-01T18:45:00Z,27.9798,-97.0287,5.0,1111122 
NERRS,ioos:station:NOAA.NERRS:marabwq:1,2014-01-01T19:45:00Z,27.9798,-97.0287,6.0,1111122 
NERRS,ioos:station:NOAA.NERRS:marabwq:1,2014-01-01T20:45:00Z,27.9798,-97.0287,5.0,1111122 
NERRS,ioos:station:NOAA.NERRS:marabwq:1,2014-01-01T21:45:00Z,27.9798,-97.0287,5.0,1111122 
NERRS,ioos:station:NOAA.NERRS:marabwq:1,2014-01-01T22:45:00Z,27.9798,-97.0287,4.0,1111122 
NERRS,ioos:station:NOAA.NERRS:marabwq:1,2014-01-02T01:45:00Z,27.9798,-97.0287,4.0,1111122 
NERRS,ioos:station:NOAA.NERRS:marabwq:1,2014-01-02T02:45:00Z,27.9798,-97.0287,4.0,1111122 
NERRS,ioos:station:NOAA.NERRS:marabwq:1,2014-01-02T03:45:00Z,27.9798,-97.0287,6.0,1111122 
NERRS,ioos:station:NOAA.NERRS:marabwq:1,2014-01-02T04:45:00Z,27.9798,-97.0287,9.0,1111122 
NERRS,ioos:station:NOAA.NERRS:marabwq:1,2014-01-02T05:45:00Z,27.9798,-97.0287,8.0,1111122 
NERRS,ioos:station:NOAA.NERRS:marabwq:1,2014-01-02T06:45:00Z,27.9798,-97.0287,9.0,1111122 
NERRS,ioos:station:NOAA.NERRS:marabwq:1,2014-01-02T07:45:00Z,27.9798,-97.0287,11.0,1111122 
NERRS,ioos:station:NOAA.NERRS:marabwq:1,2014-01-02T08:45:00Z,27.9798,-97.0287,12.0,1111122 
NERRS,ioos:station:NOAA.NERRS:marabwq:1,2014-01-02T09:45:00Z,27.9798,-97.0287,12.0,1111122 
NERRS,ioos:station:NOAA.NERRS:marabwq:1,2014-01-02T10:45:00Z,27.9798,-97.0287,9.0,1111122 
NERRS,ioos:station:NOAA.NERRS:marabwq:1,2014-01-02T11:45:00Z,27.9798,-97.0287,18.0,1111122 
NERRS,ioos:station:NOAA.NERRS:marabwq:1,2014-01-02T12:45:00Z,27.9798,-97.0287,19.0,1111122 
NERRS,ioos:station:NOAA.NERRS:marabwq:1,2014-01-02T13:45:00Z,27.9798,-97.0287,56.0,1111122 
NERRS,ioos:station:NOAA.NERRS:marabwq:1,2014-01-02T14:45:00Z,27.9798,-97.0287,61.0,1111122 
NERRS,ioos:station:NOAA.NERRS:marabwq:1,2014-01-02T15:45:00Z,27.9798,-97.0287,68.0,1111122 
NERRS,ioos:station:NOAA.NERRS:marabwq:1,2014-01-02T16:45:00Z,27.9798,-97.0287,60.0,1111122 
NERRS,ioos:station:NOAA.NERRS:marabwq:1,2014-01-02T17:45:00Z,27.9798,-97.0287,57.0,1111122 
NERRS,ioos:station:NOAA.NERRS:marabwq:1,2014-01-02T18:45:00Z,27.9798,-97.0287,62.0,1111122 
NERRS,ioos:station:NOAA.NERRS:marabwq:1,2014-01-02T19:45:00Z,27.9798,-97.0287,48.0,1111122 
NERRS,ioos:station:NOAA.NERRS:marabwq:1,2014-01-02T20:45:00Z,27.9798,-97.0287,48.0,1111122 
NERRS,ioos:station:NOAA.NERRS:marabwq:1,2014-01-02T22:45:00Z,27.9798,-97.0287,30.0,1111122 
NERRS,ioos:station:NOAA.NERRS:marabwq:1,2014-01-02T23:45:00Z,27.9798,-97.0287,32.0,1111122 
NERRS,ioos:station:NOAA.NERRS:marabwq:1,2014-01-03T00:45:00Z,27.9798,-97.0287,33.0,1111122 
NERRS,ioos:station:NOAA.NERRS:marabwq:1,2014-01-03T01:45:00Z,27.9798,-97.0287,27.0,1111122 
NERRS,ioos:station:NOAA.NERRS:marabwq:1,2014-01-03T02:45:00Z,27.9798,-97.0287,24.0,1111122 
NERRS,ioos:station:NOAA.NERRS:marabwq:1,2014-01-03T03:45:00Z,27.9798,-97.0287,23.0,1111122 
NERRS,ioos:station:NOAA.NERRS:marabwq:1,2014-01-03T08:45:00Z,27.9798,-97.0287,35.0,1111122 
NERRS,ioos:station:NOAA.NERRS:marabwq:1,2014-01-03T09:45:00Z,27.9798,-97.0287,34.0,1111122 
NERRS,ioos:station:NOAA.NERRS:marabwq:1,2014-01-03T10:45:00Z,27.9798,-97.0287,33.0,1111122 
NERRS,ioos:station:NOAA.NERRS:marabwq:1,2014-01-03T11:45:00Z,27.9798,-97.0287,30.0,1111122 
NERRS,ioos:station:NOAA.NERRS:marabwq:1,2014-01-03T12:45:00Z,27.9798,-97.0287,27.0,1111122 
NERRS,ioos:station:NOAA.NERRS:marabwq:1,2014-01-03T14:45:00Z,27.9798,-97.0287,21.0,1111122 
NERRS,ioos:station:NOAA.NERRS:marabwq:1,2014-01-03T15:45:00Z,27.9798,-97.0287,18.0,1111122 
NERRS,ioos:station:NOAA.NERRS:marabwq:1,2014-01-03T16:45:00Z,27.9798,-97.0287,20.0,1111122 
NERRS,ioos:station:NOAA.NERRS:marabwq:1,2014-01-03T17:45:00Z,27.9798,-97.0287,19.0,1111122 
NERRS,ioos:station:NOAA.NERRS:marabwq:1,2014-01-03T19:45:00Z,27.9798,-97.0287,12.0,1111122 
NERRS,ioos:station:NOAA.NERRS:marabwq:1,2014-01-03T20:45:00Z,27.9798,-97.0287,10.0,1111122 
NERRS,ioos:station:NOAA.NERRS:marabwq:1,2014-01-03T21:45:00Z,27.9798,-97.0287,9.0,1111122 
NERRS,ioos:station:NOAA.NERRS:marabwq:1,2014-01-03T22:45:00Z,27.9798,-97.0287,12.0,1111122 
NERRS,ioos:station:NOAA.NERRS:marabwq:1,2014-01-03T23:45:00Z,27.9798,-97.0287,11.0,1111122 
NERRS,ioos:station:NOAA.NERRS:marabwq:1,2014-01-04T00:45:00Z,27.9798,-97.0287,11.0,1111122 
NERRS,ioos:station:NOAA.NERRS:marabwq:1,2014-01-04T01:45:00Z,27.9798,-97.0287,13.0,1111122 
NERRS,ioos:station:NOAA.NERRS:marabwq:1,2014-01-04T03:45:00Z,27.9798,-97.0287,12.0,1111122 
NERRS,ioos:station:NOAA.NERRS:marabwq:1,2014-01-04T04:45:00Z,27.9798,-97.0287,12.0,1111122 
NERRS,ioos:station:NOAA.NERRS:marabwq:1,2014-01-04T05:45:00Z,27.9798,-97.0287,14.0,1111122 
NERRS,ioos:station:NOAA.NERRS:marabwq:1,2014-01-04T06:45:00Z,27.9798,-97.0287,12.0,1111122 
NERRS,ioos:station:NOAA.NERRS:marabwq:1,2014-01-04T07:45:00Z,27.9798,-97.0287,11.0,1111122 
NERRS,ioos:station:NOAA.NERRS:marabwq:1,2014-01-04T08:45:00Z,27.9798,-97.0287,12.0,1111122 
NERRS,ioos:station:NOAA.NERRS:marabwq:1,2014-01-04T10:45:00Z,27.9798,-97.0287,10.0,1111122 
NERRS,ioos:station:NOAA.NERRS:marabwq:1,2014-01-04T11:45:00Z,27.9798,-97.0287,13.0,1111122 
NERRS,ioos:station:NOAA.NERRS:marabwq:1,2014-01-04T12:45:00Z,27.9798,-97.0287,10.0,1111122 
NERRS,ioos:station:NOAA.NERRS:marabwq:1,2014-01-04T15:45:00Z,27.9798,-97.0287,7.0,1111122 
NERRS,ioos:station:NOAA.NERRS:marabwq:1,2014-01-04T16:45:00Z,27.9798,-97.0287,7.0,1111122 
NERRS,ioos:station:NOAA.NERRS:marabwq:1,2014-01-04T18:45:00Z,27.9798,-97.0287,7.0,1111122 
NERRS,ioos:station:NOAA.NERRS:marabwq:1,2014-01-04T19:45:00Z,27.9798,-97.0287,7.0,1111122 
NERRS,ioos:station:NOAA.NERRS:marabwq:1,2014-01-05T00:45:00Z,27.9798,-97.0287,6.0,1111122 
NERRS,ioos:station:NOAA.NERRS:marabwq:1,2014-01-05T01:45:00Z,27.9798,-97.0287,6.0,1111122 
NERRS,ioos:station:NOAA.NERRS:marabwq:1,2014-01-05T02:45:00Z,27.9798,-97.0287,6.0,1111122 
NERRS,ioos:station:NOAA.NERRS:marabwq:1,2014-01-05T06:45:00Z,27.9798,-97.0287,5.0,1111122 
NERRS,ioos:station:NOAA.NERRS:marabwq:1,2014-01-05T08:45:00Z,27.9798,-97.0287,5.0,1111122 
NERRS,ioos:station:NOAA.NERRS:marabwq:1,2014-01-05T13:45:00Z,27.9798,-97.0287,6.0,1111122 
NERRS,ioos:station:NOAA.NERRS:marabwq:1,2014-01-05T14:45:00Z,27.9798,-97.0287,5.0,1111122 
NERRS,ioos:station:NOAA.NERRS:marabwq:1,2014-01-05T16:45:00Z,27.9798,-97.0287,6.0,1111122 
NERRS,ioos:station:NOAA.NERRS:marabwq:1,2014-01-05T17:45:00Z,27.9798,-97.0287,7.0,1111122 
NERRS,ioos:station:NOAA.NERRS:marabwq:1,2014-01-05T18:45:00Z,27.9798,-97.0287,13.0,1111122 
NERRS,ioos:station:NOAA.NERRS:marabwq:1,2014-01-05T19:45:00Z,27.9798,-97.0287,38.0,1111122 
NERRS,ioos:station:NOAA.NERRS:marabwq:1,2014-01-05T20:45:00Z,27.9798,-97.0287,35.0,1111122 
NERRS,ioos:station:NOAA.NERRS:marabwq:1,2014-01-05T21:45:00Z,27.9798,-97.0287,39.0,1111122 
NERRS,ioos:station:NOAA.NERRS:marabwq:1,2014-01-06T00:45:00Z,27.9798,-97.0287,41.0,1111122 
NERRS,ioos:station:NOAA.NERRS:marabwq:1,2014-01-06T01:45:00Z,27.9798,-97.0287,46.0,1111122 
NERRS,ioos:station:NOAA.NERRS:marabwq:1,2014-01-06T02:45:00Z,27.9798,-97.0287,48.0,1111122 
NERRS,ioos:station:NOAA.NERRS:marabwq:1,2014-01-06T07:45:00Z,27.9798,-97.0287,84.0,1111122 
NERRS,ioos:station:NOAA.NERRS:marabwq:1,2014-01-06T08:45:00Z,27.9798,-97.0287,59.0,1111122 
NERRS,ioos:station:NOAA.NERRS:marabwq:1,2014-01-06T09:45:00Z,27.9798,-97.0287,75.0,1111122 
NERRS,ioos:station:NOAA.NERRS:marabwq:1,2014-01-06T11:45:00Z,27.9798,-97.0287,46.0,1111122 
NERRS,ioos:station:NOAA.NERRS:marabwq:1,2014-01-06T12:45:00Z,27.9798,-97.0287,50.0,1111122 
NERRS,ioos:station:NOAA.NERRS:marabwq:1,2014-01-06T16:45:00Z,27.9798,-97.0287,54.0,1111122 
NERRS,ioos:station:NOAA.NERRS:marabwq:1,2014-01-06T17:45:00Z,27.9798,-97.0287,40.0,1111122 
NERRS,ioos:station:NOAA.NERRS:marabwq:1,2014-01-06T18:45:00Z,27.9798,-97.0287,39.0,1111122 
NERRS,ioos:station:NOAA.NERRS:marabwq:1,2014-01-06T19:45:00Z,27.9798,-97.0287,46.0,1111122 
NERRS,ioos:station:NOAA.NERRS:marabwq:1,2014-01-06T20:45:00Z,27.9798,-97.0287,34.0,1111122 
NERRS,ioos:station:NOAA.NERRS:marabwq:1,2014-01-06T23:45:00Z,27.9798,-97.0287,21.0,1111122 
NERRS,ioos:station:NOAA.NERRS:marabwq:1,2014-01-07T00:45:00Z,27.9798,-97.0287,24.0,1111122 
NERRS,ioos:station:NOAA.NERRS:marabwq:1,2014-01-07T01:45:00Z,27.9798,-97.0287,28.0,1111122 
NERRS,ioos:station:NOAA.NERRS:marabwq:1,2014-01-07T02:45:00Z,27.9798,-97.0287,27.0,1111122 
NERRS,ioos:station:NOAA.NERRS:marabwq:1,2014-01-07T04:45:00Z,27.9798,-97.0287,28.0,1111122 
NERRS,ioos:station:NOAA.NERRS:marabwq:1,2014-01-07T06:45:00Z,27.9798,-97.0287,31.0,1111122 
NERRS,ioos:station:NOAA.NERRS:marabwq:1,2014-01-07T07:45:00Z,27.9798,-97.0287,30.0,1111122 
NERRS,ioos:station:NOAA.NERRS:marabwq:1,2014-01-07T10:45:00Z,27.9798,-97.0287,19.0,1111122 
NERRS,ioos:station:NOAA.NERRS:marabwq:1,2014-01-07T16:45:00Z,27.9798,-97.0287,23.0,1111122 
NERRS,ioos:station:NOAA.NERRS:marabwq:1,2014-01-07T17:45:00Z,27.9798,-97.0287,21.0,1111122 
NERRS,ioos:station:NOAA.NERRS:marabwq:1,2014-01-07T18:45:00Z,27.9798,-97.0287,22.0,1111122 
NERRS,ioos:station:NOAA.NERRS:marabwq:1,2014-01-07T21:45:00Z,27.9798,-97.0287,29.0,1111122 
NERRS,ioos:station:NOAA.NERRS:marabwq:1,2014-01-07T22:45:00Z,27.9798,-97.0287,26.0,1111122 
NERRS,ioos:station:NOAA.NERRS:marabwq:1,2014-01-07T23:45:00Z,27.9798,-97.0287,25.0,1111122 
NERRS,ioos:station:NOAA.NERRS:marabwq:1,2014-01-08T00:45:00Z,27.9798,-97.0287,19.0,1111122 
NERRS,ioos:station:NOAA.NERRS:marabwq:1,2014-01-08T01:45:00Z,27.9798,-97.0287,25.0,1111122 
NERRS,ioos:station:NOAA.NERRS:marabwq:1,2014-01-08T02:45:00Z,27.9798,-97.0287,19.0,1111122 
NERRS,ioos:station:NOAA.NERRS:marabwq:1,2014-01-08T03:45:00Z,27.9798,-97.0287,16.0,1111122 
NERRS,ioos:station:NOAA.NERRS:marabwq:1,2014-01-08T05:45:00Z,27.9798,-97.0287,14.0,1111122 
NERRS,ioos:station:NOAA.NERRS:marabwq:1,2014-01-08T10:45:00Z,27.9798,-97.0287,10.0,1111122 
NERRS,ioos:station:NOAA.NERRS:marabwq:1,2014-01-08T11:45:00Z,27.9798,-97.0287,9.0,1111122 
NERRS,ioos:station:NOAA.NERRS:marabwq:1,2014-01-08T12:45:00Z,27.9798,-97.0287,7.0,1111122 
NERRS,ioos:station:NOAA.NERRS:marabwq:1,2014-01-08T14:45:00Z,27.9798,-97.0287,9.0,1111122 
NERRS,ioos:station:NOAA.NERRS:marabwq:1,2014-01-08T15:45:00Z,27.9798,-97.0287,8.0,1111122 
NERRS,ioos:station:NOAA.NERRS:marabwq:1,2014-01-08T16:45:00Z,27.9798,-97.0287,8.0,1111122 
NERRS,ioos:station:NOAA.NERRS:marabwq:1,2014-01-08T17:45:00Z,27.9798,-97.0287,8.0,1111122 
NERRS,ioos:station:NOAA.NERRS:marabwq:1,2014-01-08T19:45:00Z,27.9798,-97.0287,7.0,1111122 
NERRS,ioos:station:NOAA.NERRS:marabwq:1,2014-01-08T20:45:00Z,27.9798,-97.0287,7.0,1111122 
NERRS,ioos:station:NOAA.NERRS:marabwq:1,2014-01-08T23:45:00Z,27.9798,-97.0287,8.0,1111122 
NERRS,ioos:station:NOAA.NERRS:marabwq:1,2014-01-09T00:45:00Z,27.9798,-97.0287,7.0,1111122 
NERRS,ioos:station:NOAA.NERRS:marabwq:1,2014-01-09T01:45:00Z,27.9798,-97.0287,6.0,1111122 
NERRS,ioos:station:NOAA.NERRS:marabwq:1,2014-01-09T02:45:00Z,27.9798,-97.0287,5.0,1111122 
NERRS,ioos:station:NOAA.NERRS:marabwq:1,2014-01-09T03:45:00Z,27.9798,-97.0287,5.0,1111122 
NERRS,ioos:station:NOAA.NERRS:marabwq:1,2014-01-09T04:45:00Z,27.9798,-97.0287,5.0,1111122 
NERRS,ioos:station:NOAA.NERRS:marabwq:1,2014-01-09T05:45:00Z,27.9798,-97.0287,5.0,1111122 
NERRS,ioos:station:NOAA.NERRS:marabwq:1,2014-01-09T06:45:00Z,27.9798,-97.0287,5.0,1111122 
NERRS,ioos:station:NOAA.NERRS:marabwq:1,2014-01-09T07:45:00Z,27.9798,-97.0287,5.0,1111122 
NERRS,ioos:station:NOAA.NERRS:marabwq:1,2014-01-09T08:45:00Z,27.9798,-97.0287,4.0,1111122 
NERRS,ioos:station:NOAA.NERRS:marabwq:1,2014-01-09T09:45:00Z,27.9798,-97.0287,4.0,1111122 
NERRS,ioos:station:NOAA.NERRS:marabwq:1,2014-01-09T10:45:00Z,27.9798,-97.0287,4.0,1111122 
NERRS,ioos:station:NOAA.NERRS:marabwq:1,2014-01-09T11:45:00Z,27.9798,-97.0287,4.0,1111122 
NERRS,ioos:station:NOAA.NERRS:marabwq:1,2014-01-09T12:45:00Z,27.9798,-97.0287,4.0,1111122 
NERRS,ioos:station:NOAA.NERRS:marabwq:1,2014-01-09T13:45:00Z,27.9798,-97.0287,3.0,1111122 
NERRS,ioos:station:NOAA.NERRS:marabwq:1,2014-01-09T14:45:00Z,27.9798,-97.0287,3.0,1111122 
NERRS,ioos:station:NOAA.NERRS:marabwq:1,2014-01-09T15:45:00Z,27.9798,-97.0287,2.0,1111122 
NERRS,ioos:station:NOAA.NERRS:marabwq:1,2014-01-09T16:45:00Z,27.9798,-97.0287,3.0,1111122 
NERRS,ioos:station:NOAA.NERRS:marabwq:1,2014-01-09T17:45:00Z,27.9798,-97.0287,4.0,1111122 
NERRS,ioos:station:NOAA.NERRS:marabwq:1,2014-01-09T18:45:00Z,27.9798,-97.0287,3.0,1111122 
NERRS,ioos:station:NOAA.NERRS:marabwq:1,2014-01-09T19:45:00Z,27.9798,-97.0287,3.0,1111122 
NERRS,ioos:station:NOAA.NERRS:marabwq:1,2014-01-09T20:45:00Z,27.9798,-97.0287,3.0,1111122 
NERRS,ioos:station:NOAA.NERRS:marabwq:1,2014-01-09T21:45:00Z,27.9798,-97.0287,3.0,1111122 
NERRS,ioos:station:NOAA.NERRS:marabwq:1,2014-01-09T22:45:00Z,27.9798,-97.0287,2.0,1111122 
NERRS,ioos:station:NOAA.NERRS:marabwq:1,2014-01-10T00:45:00Z,27.9798,-97.0287,3.0,1111122 
NERRS,ioos:station:NOAA.NERRS:marabwq:1,2014-01-10T01:45:00Z,27.9798,-97.0287,3.0,1111122 
NERRS,ioos:station:NOAA.NERRS:marabwq:1,2014-01-10T03:45:00Z,27.9798,-97.0287,3.0,1111122 
NERRS,ioos:station:NOAA.NERRS:marabwq:1,2014-01-10T04:45:00Z,27.9798,-97.0287,4.0,1111122 
NERRS,ioos:station:NOAA.NERRS:marabwq:1,2014-01-10T05:45:00Z,27.9798,-97.0287,5.0,1111122 
NERRS,ioos:station:NOAA.NERRS:marabwq:1,2014-01-10T06:45:00Z,27.9798,-97.0287,4.0,1111122 
NERRS,ioos:station:NOAA.NERRS:marabwq:1,2014-01-10T07:45:00Z,27.9798,-97.0287,4.0,1111122 
NERRS,ioos:station:NOAA.NERRS:marabwq:1,2014-01-10T08:45:00Z,27.9798,-97.0287,4.0,1111122 
NERRS,ioos:station:NOAA.NERRS:marabwq:1,2014-01-10T09:45:00Z,27.9798,-97.0287,4.0,1111122 
NERRS,ioos:station:NOAA.NERRS:marabwq:1,2014-01-10T11:45:00Z,27.9798,-97.0287,3.0,1111122 
NERRS,ioos:station:NOAA.NERRS:marabwq:1,2014-01-10T12:45:00Z,27.9798,-97.0287,3.0,1111122 
NERRS,ioos:station:NOAA.NERRS:marabwq:1,2014-01-10T13:45:00Z,27.9798,-97.0287,2.0,1111122 
NERRS,ioos:station:NOAA.NERRS:marabwq:1,2014-01-10T14:45:00Z,27.9798,-97.0287,1.0,1111122 
NERRS,ioos:station:NOAA.NERRS:marabwq:1,2014-01-10T15:45:00Z,27.9798,-97.0287,1.0,1111122 
NERRS,ioos:station:NOAA.NERRS:marabwq:1,2014-01-10T19:45:00Z,27.9798,-97.0287,1.0,1111122 
NERRS,ioos:station:NOAA.NERRS:marabwq:1,2014-01-11T22:45:00Z,27.9798,-97.0287,2.0,1111122 
NERRS,ioos:station:NOAA.NERRS:marabwq:1,2014-01-11T23:45:00Z,27.9798,-97.0287,2.0,1111122 
NERRS,ioos:station:NOAA.NERRS:marabwq:1,2014-01-12T00:45:00Z,27.9798,-97.0287,4.0,1111122 
NERRS,ioos:station:NOAA.NERRS:marabwq:1,2014-01-12T01:45:00Z,27.9798,-97.0287,4.0,1111122 
NERRS,ioos:station:NOAA.NERRS:marabwq:1,2014-01-12T02:45:00Z,27.9798,-97.0287,2.0,1111122 
NERRS,ioos:station:NOAA.NERRS:marabwq:1,2014-01-12T04:45:00Z,27.9798,-97.0287,1.0,1111122 
NERRS,ioos:station:NOAA.NERRS:marabwq:1,2014-01-12T05:45:00Z,27.9798,-97.0287,1.0,1111122 
NERRS,ioos:station:NOAA.NERRS:marabwq:1,2014-01-12T06:45:00Z,27.9798,-97.0287,1.0,1111122 
NERRS,ioos:station:NOAA.NERRS:marabwq:1,2014-01-12T07:45:00Z,27.9798,-97.0287,1.0,1111122 
NERRS,ioos:station:NOAA.NERRS:marabwq:1,2014-01-12T08:45:00Z,27.9798,-97.0287,1.0,1111122 
NERRS,ioos:station:NOAA.NERRS:marabwq:1,2014-01-13T04:45:00Z,27.9798,-97.0287,1.0,1111122 
NERRS,ioos:station:NOAA.NERRS:marabwq:1,2014-01-13T05:45:00Z,27.9798,-97.0287,2.0,1111122 
NERRS,ioos:station:NOAA.NERRS:marabwq:1,2014-01-13T06:45:00Z,27.9798,-97.0287,3.0,1111122 
NERRS,ioos:station:NOAA.NERRS:marabwq:1,2014-01-13T08:45:00Z,27.9798,-97.0287,3.0,1111122 
NERRS,ioos:station:NOAA.NERRS:marabwq:1,2014-01-13T09:45:00Z,27.9798,-97.0287,3.0,1111122 
NERRS,ioos:station:NOAA.NERRS:marabwq:1,2014-01-13T10:45:00Z,27.9798,-97.0287,3.0,1111122 
NERRS,ioos:station:NOAA.NERRS:marabwq:1,2014-01-13T11:45:00Z,27.9798,-97.0287,2.0,1111122 
NERRS,ioos:station:NOAA.NERRS:marabwq:1,2014-01-13T12:45:00Z,27.9798,-97.0287,1.0,1111122 
NERRS,ioos:station:NOAA.NERRS:marabwq:1,2014-01-13T13:45:00Z,27.9798,-97.0287,2.0,1111122 
NERRS,ioos:station:NOAA.NERRS:marabwq:1,2014-01-13T15:45:00Z,27.9798,-97.0287,2.0,1111122 
NERRS,ioos:station:NOAA.NERRS:marabwq:1,2014-01-13T17:45:00Z,27.9798,-97.0287,1.0,1111122 
NERRS,ioos:station:NOAA.NERRS:marabwq:1,2014-01-14T08:45:00Z,27.9798,-97.0287,2.0,1111122 
NERRS,ioos:station:NOAA.NERRS:marabwq:1,2014-01-14T11:45:00Z,27.9798,-97.0287,1.0,1111122 
NERRS,ioos:station:NOAA.NERRS:marabwq:1,2014-01-14T16:45:00Z,27.9798,-97.0287,1.0,1111122 
NERRS,ioos:station:NOAA.NERRS:marabwq:1,2014-01-14T18:45:00Z,27.9798,-97.0287,2.0,1111122 
NERRS,ioos:station:NOAA.NERRS:marabwq:1,2014-01-15T06:45:00Z,27.9798,-97.0287,2.0,1111122 
NERRS,ioos:station:NOAA.NERRS:marabwq:1,2014-01-15T07:45:00Z,27.9798,-97.0287,7.0,1111122 
NERRS,ioos:station:NOAA.NERRS:marabwq:1,2014-01-15T08:45:00Z,27.9798,-97.0287,12.0,1111122 
NERRS,ioos:station:NOAA.NERRS:marabwq:1,2014-01-15T11:45:00Z,27.9798,-97.0287,22.0,1111122 
NERRS,ioos:station:NOAA.NERRS:marabwq:1,2014-01-15T12:45:00Z,27.9798,-97.0287,33.0,1111122 
NERRS,ioos:station:NOAA.NERRS:marabwq:1,2014-01-15T13:45:00Z,27.9798,-97.0287,43.0,1111122 
NERRS,ioos:station:NOAA.NERRS:marabwq:1,2014-01-15T14:45:00Z,27.9798,-97.0287,20.0,1111122 
NERRS,ioos:station:NOAA.NERRS:marabwq:1,2014-01-15T15:45:00Z,27.9798,-97.0287,18.0,1111122 
NERRS,ioos:station:NOAA.NERRS:marabwq:1,2014-01-15T17:45:00Z,27.9798,-97.0287,6.0,1111122 
NERRS,ioos:station:NOAA.NERRS:marabwq:1,2014-01-15T18:45:00Z,27.9798,-97.0287,6.0,1111122 
NERRS,ioos:station:NOAA.NERRS:marabwq:1,2014-01-15T19:45:00Z,27.9798,-97.0287,4.0,1111122 
NERRS,ioos:station:NOAA.NERRS:marabwq:1,2014-01-16T13:45:00Z,27.9798,-97.0287,4.0,1111122 
NERRS,ioos:station:NOAA.NERRS:marabwq:1,2014-01-16T14:45:00Z,27.9798,-97.0287,2.0,1111122 
NERRS,ioos:station:NOAA.NERRS:marabwq:1,2014-01-16T16:45:00Z,27.9798,-97.0287,3.0,1111122 
NERRS,ioos:station:NOAA.NERRS:marabwq:1,2014-01-16T17:45:00Z,27.9798,-97.0287,2.0,1111122 
NERRS,ioos:station:NOAA.NERRS:marabwq:1,2014-01-16T19:45:00Z,27.9798,-97.0287,1.0,1111122 
NERRS,ioos:station:NOAA.NERRS:marabwq:1,2014-01-16T20:45:00Z,27.9798,-97.0287,2.0,1111122 
NERRS,ioos:station:NOAA.NERRS:marabwq:1,2014-01-16T21:45:00Z,27.9798,-97.0287,1.0,1111122 
NERRS,ioos:station:NOAA.NERRS:marabwq:1,2014-01-16T23:45:00Z,27.9798,-97.0287,1.0,1111122 
NERRS,ioos:station:NOAA.NERRS:marabwq:1,2014-01-17T00:45:00Z,27.9798,-97.0287,2.0,1111122 
NERRS,ioos:station:NOAA.NERRS:marabwq:1,2014-01-17T02:45:00Z,27.9798,-97.0287,2.0,1111122 
NERRS,ioos:station:NOAA.NERRS:marabwq:1,2014-01-17T03:45:00Z,27.9798,-97.0287,2.0,1111122 
NERRS,ioos:station:NOAA.NERRS:marabwq:1,2014-01-17T04:45:00Z,27.9798,-97.0287,2.0,1111122 
NERRS,ioos:station:NOAA.NERRS:marabwq:1,2014-01-17T05:45:00Z,27.9798,-97.0287,2.0,1111122 
NERRS,ioos:station:NOAA.NERRS:marabwq:1,2014-01-17T06:45:00Z,27.9798,-97.0287,1.0,1111122 
NERRS,ioos:station:NOAA.NERRS:marabwq:1,2014-01-17T07:45:00Z,27.9798,-97.0287,2.0,1111122 
NERRS,ioos:station:NOAA.NERRS:marabwq:1,2014-01-17T08:45:00Z,27.9798,-97.0287,2.0,1111122 
NERRS,ioos:station:NOAA.NERRS:marabwq:1,2014-01-17T09:45:00Z,27.9798,-97.0287,2.0,1111122 
NERRS,ioos:station:NOAA.NERRS:marabwq:1,2014-01-17T10:45:00Z,27.9798,-97.0287,3.0,1111122 
NERRS,ioos:station:NOAA.NERRS:marabwq:1,2014-01-17T11:45:00Z,27.9798,-97.0287,2.0,1111122 
NERRS,ioos:station:NOAA.NERRS:marabwq:1,2014-01-17T12:45:00Z,27.9798,-97.0287,4.0,1111122 
NERRS,ioos:station:NOAA.NERRS:marabwq:1,2014-01-17T13:45:00Z,27.9798,-97.0287,4.0,1111122 
NERRS,ioos:station:NOAA.NERRS:marabwq:1,2014-01-17T15:45:00Z,27.9798,-97.0287,18.0,1111122 
NERRS,ioos:station:NOAA.NERRS:marabwq:1,2014-01-17T19:45:00Z,27.9798,-97.0287,13.0,1111122 
NERRS,ioos:station:NOAA.NERRS:marabwq:1,2014-01-17T20:45:00Z,27.9798,-97.0287,11.0,1111122 
NERRS,ioos:station:NOAA.NERRS:marabwq:1,2014-01-17T21:45:00Z,27.9798,-97.0287,12.0,1111122 
NERRS,ioos:station:NOAA.NERRS:marabwq:1,2014-01-17T23:45:00Z,27.9798,-97.0287,9.0,1111122 
NERRS,ioos:station:NOAA.NERRS:marabwq:1,2014-01-18T00:45:00Z,27.9798,-97.0287,8.0,1111122 
NERRS,ioos:station:NOAA.NERRS:marabwq:1,2014-01-18T01:45:00Z,27.9798,-97.0287,7.0,1111122 
NERRS,ioos:station:NOAA.NERRS:marabwq:1,2014-01-18T02:45:00Z,27.9798,-97.0287,8.0,1111122 
NERRS,ioos:station:NOAA.NERRS:marabwq:1,2014-01-18T04:45:00Z,27.9798,-97.0287,7.0,1111122 
NERRS,ioos:station:NOAA.NERRS:marabwq:1,2014-01-18T06:45:00Z,27.9798,-97.0287,6.0,1111122 
NERRS,ioos:station:NOAA.NERRS:marabwq:1,2014-01-18T07:45:00Z,27.9798,-97.0287,5.0,1111122 
NERRS,ioos:station:NOAA.NERRS:marabwq:1,2014-01-18T08:45:00Z,27.9798,-97.0287,4.0,1111122 
NERRS,ioos:station:NOAA.NERRS:marabwq:1,2014-01-18T09:45:00Z,27.9798,-97.0287,5.0,1111122 
NERRS,ioos:station:NOAA.NERRS:marabwq:1,2014-01-18T10:45:00Z,27.9798,-97.0287,4.0,1111122 
NERRS,ioos:station:NOAA.NERRS:marabwq:1,2014-01-18T11:45:00Z,27.9798,-97.0287,5.0,1111122 
NERRS,ioos:station:NOAA.NERRS:marabwq:1,2014-01-18T13:45:00Z,27.9798,-97.0287,3.0,1111122 
NERRS,ioos:station:NOAA.NERRS:marabwq:1,2014-01-18T14:45:00Z,27.9798,-97.0287,3.0,1111122 
NERRS,ioos:station:NOAA.NERRS:marabwq:1,2014-01-18T15:45:00Z,27.9798,-97.0287,3.0,1111122 
NERRS,ioos:station:NOAA.NERRS:marabwq:1,2014-01-18T16:45:00Z,27.9798,-97.0287,3.0,1111122 
NERRS,ioos:station:NOAA.NERRS:marabwq:1,2014-01-18T17:45:00Z,27.9798,-97.0287,2.0,1111122 
NERRS,ioos:station:NOAA.NERRS:marabwq:1,2014-01-18T18:45:00Z,27.9798,-97.0287,2.0,1111122 
NERRS,ioos:station:NOAA.NERRS:marabwq:1,2014-01-18T19:45:00Z,27.9798,-97.0287,2.0,1111122 
NERRS,ioos:station:NOAA.NERRS:marabwq:1,2014-01-18T20:45:00Z,27.9798,-97.0287,3.0,1111122 
NERRS,ioos:station:NOAA.NERRS:marabwq:1,2014-01-18T21:45:00Z,27.9798,-97.0287,3.0,1111122 
NERRS,ioos:station:NOAA.NERRS:marabwq:1,2014-01-18T22:45:00Z,27.9798,-97.0287,3.0,1111122 
NERRS,ioos:station:NOAA.NERRS:marabwq:1,2014-01-18T23:45:00Z,27.9798,-97.0287,4.0,1111122 
NERRS,ioos:station:NOAA.NERRS:marabwq:1,2014-01-19T00:45:00Z,27.9798,-97.0287,3.0,1111122 
NERRS,ioos:station:NOAA.NERRS:marabwq:1,2014-01-19T02:45:00Z,27.9798,-97.0287,2.0,1111122 
NERRS,ioos:station:NOAA.NERRS:marabwq:1,2014-01-19T03:45:00Z,27.9798,-97.0287,3.0,1111122 
NERRS,ioos:station:NOAA.NERRS:marabwq:1,2014-01-19T04:45:00Z,27.9798,-97.0287,2.0,1111122 
NERRS,ioos:station:NOAA.NERRS:marabwq:1,2014-01-19T07:45:00Z,27.9798,-97.0287,1.0,1111122 
NERRS,ioos:station:NOAA.NERRS:marabwq:1,2014-01-19T08:45:00Z,27.9798,-97.0287,1.0,1111122 
NERRS,ioos:station:NOAA.NERRS:marabwq:1,2014-01-19T09:45:00Z,27.9798,-97.0287,1.0,1111122 
NERRS,ioos:station:NOAA.NERRS:marabwq:1,2014-01-19T10:45:00Z,27.9798,-97.0287,1.0,1111122 
NERRS,ioos:station:NOAA.NERRS:marabwq:1,2014-01-19T11:45:00Z,27.9798,-97.0287,1.0,1111122 
NERRS,ioos:station:NOAA.NERRS:marabwq:1,2014-01-19T12:45:00Z,27.9798,-97.0287,1.0,1111122 
NERRS,ioos:station:NOAA.NERRS:marabwq:1,2014-01-19T13:45:00Z,27.9798,-97.0287,2.0,1111122 